BEIDOU-2 IGSO-6

Last updated on Sat Mar 14 2026 00:02:55 GMT+0000 (Coordinated Universal Time)

1 41434U 16021A 26070.87699223 -.00000131 00000+0 00000+0 0 9991 2 41434 60.0969 39.0050 0059566 233.2714 308.7278 1.00277411 36500
UTC large
Height (km)
Speed (km/s)
/
Latitude / Longitude
Inclination (degrees)
Orbital Period (minutes)
Azimuth
Elevation
Range (km)
Doppler Factor

Next 0 passes for location: London (51.5072 / 0.1276)

Sorry there are no passes over London.